Dewpoint
73 74 75 74 75 76 77 76 76 76 76 76 76 77 77 77 77 77 77 77 77 77 77 77 77 77 77 77 77 76 76 76 76 76 76 76 75 75 75 75 75 75 75 75 75 76 76 76 76 75 76 76 76 75 75 76 76 76 76 76 76 76 75 75 75 75 75 75 75 75 74 75 75 75 75 75 75 75 75 75 75 73 74 74 74
73 74 75 75 76 76 76 76 76 76 76 76 76 76 77 77 77 77 77 77 77 77 77 77 76 76 76 76 76 76 76 76 76 76 76 75 75 75 75 75 75 75 75 75 75 76 76 76 76 75 76 76 76 75 75 75 75 75 75 75 75 75 75 75 75 75 75 75 75 74 75 75 75 75 75 75 75 75 76 76 75 74 73 74 74
74 74 74 75 76 76 76 76 76 76 76 76 76 76 77 77 77 77 77 77 77 77 77 77 76 76 76 76 76 76 76 76 75 75 75 75 75 75 75 75 75 75 75 75 76 76 76 76 75 75 76 76 76 75 75 75 75 75 76 75 76 75 75 76 75 75 75 75 75 74 75 75 75 75 75 75 75 76 75 76 75 75 74 74 75
73 74 74 75 76 76 76 76 76 76 76 76 76 77 77 77 77 77 77 77 77 77 77 76 76 76 76 76 76 75 75 75 75 75 75 75 75 75 75 75 75 75 75 75 75 75 76 76 76 75 76 76 75 75 75 75 75 76 76 75 75 75 75 75 75 75 75 76 76 75 75 73 74 75 75 75 75 74 74 74 74 75 75 75 74
73 74 75 75 75 76 76 76 76 76 76 76 76 77 77 77 77 77 77 77 76 76 76 76 76 76 76 76 76 75 75 74 74 74 74 74 75 75 75 75 75 75 75 75 75 75 75 75 75 76 76 76 76 75 75 75 75 75 75 75 75 75 75 75 75 75 75 75 75 75 73 73 73 74 74 76 75 75 75 74 74 74 74 75 75
74 74 75 75 75 76 77 76 76 76 76 76 76 77 77 77 77 76 77 76 76 76 76 76 76 76 76 76 76 75 75 75 75 74 74 75 75 75 75 75 75 74 75 75 75 75 75 75 75 75 75 76 76 76 76 75 75 75 75 75 75 74 74 76 75 75 75 76 75 74 73 73 73 73 74 74 74 75 74 74 74 75 75 74 74
74 74 75 75 75 76 77 77 76 77 76 76 76 77 77 76 76 76 76 76 76 76 76 76 76 76 75 75 75 75 75 74 75 75 75 75 75 75 75 75 74 75 75 75 75 75 75 75 75 76 76 75 75 75 75 75 75 75 75 76 75 75 75 75 75 75 75 74 72 72 73 73 73 73 74 75 74 74 74 74 74 75 74 74 74
74 75 74 75 75 76 77 77 76 76 76 75 76 76 76 76 76 76 76 76 75 75 76 75 75 76 75 75 75 75 75 75 75 75 76 75 75 75 75 74 74 75 75 75 76 76 75 75 75 75 75 75 75 74 75 75 75 75 74 75 74 74 75 75 75 75 75 73 72 72 72 73 73 73 74 74 74 74 74 74 74 74 74 74 75
74 74 75 75 75 77 77 77 76 76 76 76 76 76 76 76 76 76 76 75 76 76 75 75 76 75 75 75 75 74 74 75 75 75 75 76 75 75 75 75 75 75 75 75 75 76 75 75 75 75 75 75 75 75 75 75 75 74 75 74 74 74 74 74 75 75 74 73 72 72 72 73 73 73 74 74 73 73 73 73 73 74 74 75 75
74 74 75 75 76 77 77 76 76 76 77 77 77 77 76 76 76 76 75 75 76 76 75 75 75 76 75 75 75 75 75 75 75 75 75 76 76 75 75 75 75 75 75 75 75 75 75 75 75 75 75 75 75 75 75 75 75 75 74 74 74 74 74 75 75 75 72 72 72 73 74 75 73 73 73 73 74 73 73 73 73 74 74 74 74
74 74 75 75 76 77 77 77 76 76 77 76 76 76 76 76 76 75 75 76 75 75 75 75 75 76 76 75 75 75 75 74 75 75 75 76 76 75 75 75 74 74 74 74 74 74 74 74 75 75 75 74 74 75 75 75 75 75 75 75 74 74 75 76 75 73 73 73 73 73 74 74 72 72 73 73 73 73 73 73 74 74 74 74 74
74 74 75 75 77 77 76 76 76 77 77 77 77 76 76 76 76 75 75 75 75 75 75 75 76 76 75 75 75 74 75 75 75 75 75 75 76 75 75 75 74 74 74 74 74 75 75 75 75 75 75 74 74 75 75 75 75 75 75 74 74 75 75 75 73 73 72 72 73 73 73 73 73 73 74 73 73 73 74 73 74 74 74 74 73
73 74 75 76 76 77 76 76 77 77 77 77 77 76 76 75 75 75 75 75 75 74 75 75 75 75 75 75 75 74 75 74 74 75 75 75 75 75 75 75 74 75 74 75 75 75 75 75 75 75 74 74 74 75 75 75 75 75 75 75 75 75 76 75 72 72 72 72 72 72 73 73 73 74 73 74 73 73 73 73 74 74 74 74 73
73 74 75 75 76 77 77 77 77 77 77 76 76 76 75 75 75 75 75 75 75 75 75 75 75 75 74 75 75 75 75 75 75 75 75 75 75 75 75 74 74 74 74 74 75 74 74 74 75 75 74 75 75 75 75 75 74 74 75 75 74 74 76 75 74 73 73 72 73 72 73 74 73 74 74 74 74 74 74 74 74 74 74 73 73
73 74 75 75 75 76 77 77 77 77 76 76 76 75 75 75 75 75 75 75 75 75 75 75 75 74 75 75 75 75 75 75 75 75 75 75 75 75 75 74 74 74 74 74 74 74 74 75 75 75 75 75 75 75 75 75 75 74 75 74 75 75 75 73 73 73 73 73 73 73 72 73 74 74 73 73 73 73 73 73 74 74 73 73 73
74 74 75 75 75 76 76 77 77 76 76 76 75 75 75 76 75 75 75 76 76 75 75 75 75 75 75 75 75 75 75 75 75 75 75 75 75 75 74 74 74 74 74 74 74 74 75 75 75 75 75 75 75 75 75 75 75 75 75 75 75 75 75 75 73 72 72 72 72 73 73 73 74 74 74 74 73 73 74 74 74 73 74 73 73
74 75 75 75 75 75 75 75 76 76 76 75 76 76 76 76 76 76 76 77 76 76 75 75 75 75 75 76 75 75 75 75 75 75 75 75 75 74 74 75 75 75 74 74 74 74 75 75 75 75 74 74 74 75 75 75 74 75 75 75 75 75 75 74 72 72 72 73 73 72 73 73 74 74 74 74 74 74 74 74 73 73 73 73 73
74 74 74 75 75 75 75 75 75 75 75 76 76 76 76 76 76 76 76 77 76 75 75 76 76 76 76 75 75 75 75 75 75 75 75 75 75 74 75 75 75 75 75 74 74 74 75 75 75 75 74 74 74 75 75 75 75 75 75 75 75 75 75 75 72 73 73 74 72 74 73 74 74 74 74 74 74 74 74 73 73 73 73 73 73
74 74 75 75 75 75 75 75 76 75 75 75 75 75 76 76 76 76 76 77 76 76 76 76 76 76 76 75 75 75 75 75 75 75 75 75 75 75 75 75 75 75 74 74 74 74 75 75 76 75 75 75 75 75 75 75 75 75 75 75 75 75 75 75 73 73 73 73 72 72 72 74 74 74 74 74 74 74 73 73 73 73 73 73 73
73 74 74 74 75 75 75 75 75 75 74 74 75 75 75 75 75 76 76 77 76 76 76 76 76 75 75 74 75 75 75 74 76 74 75 75 75 74 75 76 75 75 75 75 75 75 75 75 76 76 75 75 74 74 74 74 74 75 76 75 75 75 73 72 72 72 72 73 73 72 74 74 74 74 74 74 74 74 73 73 73 73 73 73 73
73 73 73 74 74 75 75 75 75 74 74 74 74 75 75 75 75 76 76 76 76 76 75 75 75 74 75 75 75 75 75 75 75 74 75 75 74 75 75 75 76 75 76 76 76 75 75 75 75 75 75 75 74 74 74 74 74 74 75 75 76 73 72 72 72 73 73 73 74 72 74 73 73 74 74 74 74 74 73 74 74 74 73 73 73
72 72 73 73 74 74 74 74 74 74 74 75 75 75 75 75 75 75 75 75 75 75 74 74 75 75 74 75 75 76 74 74 75 75 75 75 75 75 75 75 76 76 76 76 76 76 76 76 75 75 75 75 75 74 75 75 73 74 75 75 72 72 72 72 72 73 73 72 73 73 74 73 73 73 74 74 74 74 74 73 74 74 74 74 73
71 71 72 73 74 74 74 74 73 74 74 74 75 75 74 75 75 75 75 76 76 76 75 75 74 75 75 75 76 75 74 75 75 76 76 75 75 75 75 75 76 76 76 76 75 76 75 75 75 75 75 75 75 74 74 74 74 75 75 72 71 72 72 72 72 72 72 72 72 74 74 74 74 74 74 74 74 74 74 73 73 73 74 73 73
70 71 72 73 73 73 74 73 73 74 74 74 74 74 75 75 75 75 75 75 75 75 75 75 75 75 75 75 74 75 74 74 76 76 75 75 74 75 75 75 76 76 76 76 76 76 76 75 76 76 78 77 74 74 74 74 74 72 71 71 71 72 72 72 72 72 72 73 73 74 74 74 74 74 74 74 74 74 74 74 74 74 74 73 73
70 71 72 72 73 73 73 73 73 74 74 74 74 74 75 75 75 75 75 75 75 74 74 74 75 75 75 75 74 75 74 74 74 74 74 74 74 74 75 75 74 74 77 74 74 75 76 74 75 77 75 75 74 74 74 74 74 73 72 72 72 72 72 72 72 72 72 72 73 75 75 75 75 74 74 74 74 74 74 74 74 74 74 73 73
70 70 71 72 72 72 72 73 73 73 74 74 74 75 75 74 74 74 75 74 74 74 74 75 75 75 75 75 75 74 74 74 73 73 73 73 74 74 74 74 74 74 76 74 74 74 74 75 74 75 75 74 74 74 74 74 72 73 72 72 72 72 72 72 72 72 72 72 74 75 75 75 74 74 74 74 74 74 74 74 74 73 74 74 73
70 70 71 72 72 72 72 73 73 73 73 74 74 75 74 74 74 74 74 74 74 74 74 74 74 75 75 75 74 74 73 73 73 73 73 73 73 73 73 74 73 74 75 74 74 74 74 74 74 75 74 74 74 73 74 72 72 72 71 71 72 73 72 72 72 72 72 73 75 75 74 74 73 73 73 74 74 74 74 74 74 74 74 74 74
69 70 71 71 72 72 72 72 72 73 73 73 74 74 74 74 74 76 74 74 74 73 74 74 74 75 75 75 76 74 73 73 74 74 74 74 73 74 74 74 74 74 74 74 74 73 74 74 74 74 74 74 74 73 73 72 71 71 70 70 72 72 72 72 72 72 72 72 73 74 74 74 73 74 74 74 74 74 74 74 74 74 73 73 73
69 70 71 71 71 72 72 72 72 72 73 73 73 73 73 73 74 74 73 75 73 73 74 74 73 74 75 76 75 73 73 73 74 74 74 73 74 74 74 73 74 74 75 74 74 74 74 73 73 72 73 72 72 72 73 71 70 70 69 70 71 71 72 72 72 73 73 73 73 74 74 74 74 74 74 74 74 74 73 73 73 73 73 73 72
69 70 71 71 71 72 72 71 72 72 72 72 73 72 72 72 73 74 73 76 73 73 74 73 72 73 73 75 75 74 73 74 74 74 74 73 73 73 73 73 73 74 73 72 74 74 73 72 71 72 72 73 71 71 72 70 69 69 69 70 70 71 72 72 72 73 73 73 73 75 74 74 74 74 74 74 73 74 74 73 73 73 73 73 72
70 70 70 71 71 71 71 72 72 73 72 72 72 72 72 72 73 73 73 74 73 74 73 72 71 72 72 75 75 75 74 74 74 74 73 74 73 73 72 73 72 73 73 72 74 74 73 73 73 73 74 73 70 70 70 69 69 68 70 69 69 71 71 72 72 73 73 73 74 74 74 74 74 74 74 74 74 73 73 74 74 73 73 73 72
69 69 70 71 71 71 71 71 71 72 72 71 72 71 71 71 72 72 73 73 73 72 71 71 72 72 75 75 75 75 77 74 74 74 73 73 73 73 72 72 71 73 74 72 74 75 74 74 75 75 75 73 73 72 69 68 68 68 69 69 69 71 71 71 72 73 73 73 73 74 74 74 75 74 74 74 74 74 73 73 73 73 73 73 73
69 69 70 71 71 70 71 71 71 72 71 70 71 70 70 71 71 71 72 72 72 71 70 70 72 74 75 75 74 75 76 74 74 74 75 73 74 73 73 73 73 74 75 75 75 75 75 75 75 75 74 72 72 71 70 67 67 68 68 68 68 70 71 71 71 72 72 73 74 74 74 75 75 75 74 74 74 74 74 74 74 73 73 73 73
68 69 70 71 71 70 71 71 72 71 71 70 70 70 70 70 71 70 72 70 71 70 70 71 74 75 75 74 73 74 74 74 74 74 74 73 74 73 73 74 74 75 75 75 74 74 73 74 74 72 75 72 72 72 69 66 66 67 67 67 68 70 71 71 71 71 72 72 73 73 74 74 74 74 75 75 75 74 74 74 74 74 74 73 73
68 68 70 71 71 70 71 71 72 71 72 70 70 69 70 70 69 69 70 70 70 69 70 73 74 75 74 73 73 74 75 76 75 74 73 74 74 74 74 74 75 75 74 75 74 73 73 73 75 72 72 73 73 74 71 65 65 66 67 67 67 70 71 71 71 71 71 72 73 73 73 74 73 74 75 74 75 76 75 74 75 75 74 74 74
67 68 69 70 69 69 70 70 71 70 70 70 69 69 69 69 68 72 69 70 70 70 72 74 75 76 74 74 74 75 76 77 76 74 73 74 74 73 74 75 76 75 74 74 74 73 73 74 75 73 71 72 74 71 71 69 66 66 67 67 67 70 70 71 71 71 71 72 72 72 73 73 74 74 76 74 74 75 75 75 75 75 75 75 75
66 67 68 68 68 69 70 69 70 70 69 69 68 69 69 68 68 71 70 71 71 71 73 75 76 75 75 75 76 77 76 76 75 74 74 73 74 74 75 75 75 74 74 73 73 75 73 75 74 76 73 72 72 70 69 71 69 67 66 66 66 69 69 70 70 71 71 71 72 72 73 73 74 76 75 74 74 74 76 76 75 75 75 75 75
66 66 67 67 67 68 69 69 69 69 69 68 68 68 68 69 69 69 72 71 71 72 74 75 75 75 75 76 77 77 77 76 75 75 74 74 74 74 75 76 76 75 74 73 73 74 74 74 73 75 74 73 72 70 69 70 72 70 67 65 68 68 67 68 70 74 71 71 72 72 72 73 74 74 75 74 74 74 74 75 76 76 75 75 75
65 66 66 66 68 68 69 70 69 68 69 69 69 68 69 69 69 68 69 70 72 72 73 74 74 75 75 76 77 77 77 75 76 76 75 75 74 75 75 75 75 74 74 73 74 75 75 74 73 73 75 74 73 72 71 72 73 67 64 65 68 67 67 68 70 72 71 71 71 72 72 73 73 74 74 74 74 74 74 74 74 75 75 75 76
64 65 66 66 67 68 69 69 69 68 69 69 69 68 69 69 67 68 68 70 70 71 72 73 74 74 76 76 77 76 76 76 76 75 75 74 74 75 75 75 75 74 74 73 72 73 73 73 73 74 73 74 74 74 73 71 67 66 68 66 67 66 65 70 69 69 71 71 72 73 72 73 73 73 74 74 73 73 73 73 75 75 74 75 76
64 64 64 65 67 68 68 68 69 69 69 68 68 67 67 68 67 66 65 66 68 69 71 72 73 74 76 76 76 76 76 77 77 76 75 77 75 75 75 75 75 74 73 73 73 74 74 73 75 75 74 72 71 72 73 70 63 63 66 65 65 66 70 72 68 67 68 69 71 73 72 73 73 73 74 74 73 73 73 73 74 74 74 74 75
63 64 63 65 67 68 68 68 68 69 68 68 68 67 67 68 66 65 64 64 71 69 69 72 73 75 76 76 76 76 77 77 77 76 76 76 75 74 74 75 75 74 73 74 73 77 74 74 73 72 73 72 71 73 73 66 65 62 62 62 65 65 70 71 66 65 65 65 68 71 70 71 71 72 73 73 73 74 73 72 73 74 74 74 74
61 63 63 65 67 67 67 68 68 68 68 68 69 67 67 69 66 65 63 66 71 68 70 72 74 75 75 76 76 76 77 77 77 77 76 75 74 74 74 75 75 76 74 74 74 73 72 73 73 72 72 72 74 74 70 68 65 67 66 62 60 60 65 65 65 66 64 61 66 68 68 68 69 71 72 72 73 73 73 73 72 73 73 73 73
61 62 63 65 66 68 67 68 68 68 69 68 70 67 69 69 67 65 65 68 68 69 71 73 74 74 75 76 76 77 77 77 77 77 76 75 74 73 74 75 75 75 74 74 73 73 73 73 73 74 72 68 70 70 74 72 70 64 60 61 61 61 59 59 61 64 65 61 62 64 65 65 66 68 71 71 72 73 73 73 73 73 73 73 73
60 61 63 64 66 67 67 68 68 68 69 70 70 69 71 69 68 67 68 68 69 70 72 73 73 74 74 75 75 76 77 77 77 77 77 75 74 74 74 74 75 75 75 74 74 73 73 73 72 73 72 70 69 70 72 73 71 68 67 62 61 59 60 61 62 62 65 60 60 60 63 61 62 65 68 69 71 72 72 72 73 73 73 73 73
59 61 62 64 66 67 67 68 68 68 69 69 70 70 71 68 67 66 65 65 66 69 71 72 72 73 73 75 75 76 77 77 77 77 77 76 75 75 75 75 75 75 75 75 74 73 73 73 73 73 73 73 70 69 68 71 73 75 71 66 64 60 61 63 59 57 64 70 64 60 61 61 60 63 66 66 67 69 71 69 71 73 73 73 74
58 61 62 64 66 66 67 68 68 68 69 70 71 70 70 68 67 66 65 64 65 66 70 72 72 73 73 74 75 76 76 76 76 76 76 76 76 76 76 76 76 76 77 75 74 74 74 74 73 73 73 74 71 68 68 68 70 71 72 69 70 70 67 61 58 61 55 60 66 58 61 61 60 61 65 65 65 66 67 68 68 70 71 72 72
58 61 62 63 66 66 67 68 68 69 69 70 71 69 69 68 68 66 66 65 65 65 67 70 72 73 72 74 74 75 75 75 75 75 75 76 77 76 75 76 76 76 77 75 75 75 75 74 74 74 74 74 72 69 69 70 67 68 75 71 71 71 66 65 65 60 60 57 56 62 63 60 62 63 65 65 64 64 66 67 68 68 68 69 69
58 60 61 63 66 66 67 68 69 69 69 70 71 69 70 68 68 67 66 66 66 66 68 69 71 72 71 73 74 74 74 74 74 74 74 75 77 76 75 75 76 76 78 76 75 74 74 74 74 74 73 74 74 72 69 68 69 69 68 68 70 69 68 67 65 68 65 60 60 61 60 63 62 63 64 65 64 64 66 66 68 68 69 69 69
59 61 61 63 66 66 67 68 69 69 69 70 71 70 69 69 68 67 66 65 67 66 67 67 69 70 71 72 73 73 73 73 73 73 74 75 76 76 75 74 76 75 77 75 74 74 73 73 74 74 74 73 74 74 71 71 72 71 70 69 67 67 65 65 65 62 63 61 58 58 61 59 59 61 64 63 63 63 65 67 68 70 69 69 69
61 61 60 62 65 66 67 68 69 69 69 70 71 70 69 69 68 67 66 65 66 65 66 66 67 69 70 71 72 72 72 72 73 73 74 74 75 75 75 74 75 75 77 75 74 73 72 73 74 75 75 74 75 74 75 75 74 73 72 69 68 65 64 63 62 64 62 60 59 61 65 64 58 59 59 62 64 62 64 66 67 68 69 69 70